Location: Arbon
(43.0005°N, 0.7472°E)
Time: 00:57:46
(UTC+00:00)

S-56A Canister/Altair - Pass Details

Date: 10 December 2020
Orbit: 633 x 2499 km, 38.9° (Epoch: 19 January)

Event Time Altitude Azimuth Distance (km) Brightness Sun altitude
Rises 21:29:13 0° 284° (WNW) 5,602 12.5 -54.7°
Reaches altitude 10° 21:33:43 10° 276° (W) 4,316 11.7 -55.5°
Enters shadow 21:38:11 22° 260° (W) 3,121 10.7 -56.2°
